[[{"header":{"parameterUnit":"m.s-1","parameterCategory":1,"la1":30.2991,"la2":30.254,"lo1":-89.0895,"lo2":-89.0444,"dy":0.0017,"dx":0.0017,"nx":28,"ny":28,"refTime":"2025-06-11T21:00:00:Z","depth":0,"parameterNumber":2,"parameterNumberName":"U-component_of_WINDS"},"data":[0,0,0,0,0,0,0,0,0,0,0,0,0,0,0,0,0,0,0,0,0,0,0,0,0,0,0,0,0,0,0,0,0,0,0,0,0,0,0,0,0,0,0,0,0,0,0,0,0,0,0,0,0,0,0,0,0,0,0.0893,0.0894,0,0.0966,0.0967,0.0968,0.1034,0.1035,0.1036,0.1036,0.1112,0.1113,0.1114,0,0,0,0,0,0,0,0,0,0,0,0,0,0.0811,0.0812,0.0893,0.0894,0.0895,0.0966,0.0967,0.0968,0.1034,0.1035,0.1036,0.1037,0.1111,0.1113,0.1114,0,0,0,0,0,0,0,0,0,0,0,0,0,0.0862,0.0813,0.0893,0.0936,0.0941,0.0966,0.0967,0.0968,0.1034,0.1035,0.1036,0.1037,0.1111,0.1113,0.1115,0.1103,0,0,0.112,0.1121,0,0,0,0,0,0,0,0,0.0859,0.0865,0.0929,0.0933,0.0938,0.0992,0.0966,0.1013,0.1033,0.0998,0.1036,0.1038,0.1071,0.1076,0.1087,0.1106,0.111,0.1121,0.1122,0.1123,0.1123,0,0,0,0,0,0,0,0.0855,0.0862,0.0922,0.093,0.0936,0.0952,0.0961,0.0975,0.1027,0.1001,0.1006,0.1014,0.1074,0.1085,0.109,0.1111,0.1121,0.1122,0.1123,0.1124,0.1125,0.1124,0,0,0,0,0,0,0.0845,0.0858,0.092,0.0924,0.0901,0.0953,0.0962,0.0974,0.1027,0.1036,0.1013,0.1017,0.1082,0.1087,0.1093,0.1083,0.1123,0.1124,0.1125,0.1126,0.1124,0.1123,0,0,0,0,0,0,0.0843,0.085,0.0917,0.0893,0.0902,0.0953,0.0965,0.0974,0.0986,0.1036,0.1046,0.1015,0.1083,0.109,0.11,0.1087,0.1125,0.1127,0.1127,0.1125,0.1124,0.1064,0,0,0,0,0,0,0.084,0.0848,0.0844,0.0892,0.0903,0.0922,0.0964,0.0975,0.0989,0.0995,0.1041,0.1049,0.1084,0.1097,0.1102,0.109,0.1128,0.1129,0.1126,0.1124,0.1067,0.106,0.1054,0,0,0,0,0,0.0837,0.0824,0.0844,0.0851,0.0899,0.0921,0.0928,0.0968,0.0988,0.0984,0.1016,0.1048,0.1087,0.1097,0.1104,0.1092,0.113,0.1127,0.1125,0.107,0.1061,0.1054,0,0,0,0,0,0,0.0773,0.0831,0.0853,0.0856,0.0883,0.0932,0.0929,0.0958,0.098,0.0985,0.1034,0.1044,0.1048,0.1071,0.1081,0.1084,0.1113,0.1111,0.1069,0.1061,0.1055,0.105,0.113,0,0,0,0,0,0.0759,0.0772,0.0822,0.082,0.0832,0.0878,0.0889,0.0918,0.0948,0.096,0.0993,0.1022,0.1041,0.1052,0.1072,0.107,0.1082,0.1066,0.1059,0.1054,0.1052,0.1054,0.1047,0.1115,0.1115,0.1115,0,0,0.0731,0.0764,0.077,0.0808,0.0832,0.0845,0.0887,0.0899,0.0909,0.0962,0.0974,0.0999,0.1034,0.1038,0.1042,0.1058,0.1036,0.105,0.1046,0.1047,0.105,0.1044,0.1038,0.1113,0.1113,0.1114,0,0,0.0686,0.0712,0.0713,0.0737,0.0774,0.0805,0.0805,0.085,0.0869,0.0881,0.0922,0.0935,0.0966,0.099,0.1006,0.0971,0.1001,0.0976,0.0942,0.0943,0.0938,0.0934,0.0922,0.0917,0.0974,0.0974,0.0974,0,0.0646,0.0667,0.071,0.072,0.0736,0.0784,0.0786,0.0807,0.0849,0.0859,0.0876,0.0917,0.0944,0.0955,0.0946,0.0957,0.0959,0.0971,0.0935,0.0931,0.0928,0.0917,0.0912,0.0971,0.0971,0.0971,0.0972,0,0.0617,0.0631,0.0627,0.0666,0.0682,0.0687,0.0731,0.0742,0.0769,0.0798,0.0811,0.0845,0.0873,0.0878,0.0905,0.0893,0.0902,0.0926,0.0956,0.0917,0.0908,0.0904,0.0966,0.0967,0.0968,0.0969,0,0,0.0534,0.0597,0.0595,0.0614,0.0658,0.067,0.0678,0.0706,0.0714,0.0741,0.075,0.0775,0.0799,0.0817,0.0847,0.0847,0.0818,0.0872,0.0874,0.0862,0.0808,0.079,0.0785,0.0838,0.0838,0.0837,0.0806,0,0.0497,0.0514,0.0553,0.0558,0.0572,0.0619,0.0626,0.0654,0.0681,0.0697,0.0728,0.0746,0.0774,0.0786,0.0789,0.0821,0.0808,0.0824,0.0847,0.0847,0.0837,0.078,0.076,0.0729,0.0802,0.0802,0.0801,0,0.0456,0.0481,0.0487,0.0532,0.0539,0.0544,0.0574,0.0588,0.0621,0.0641,0.0662,0.0695,0.0706,0.0733,0.075,0.076,0.0772,0.0789,0.0789,0.0793,0.0822,0.0783,0.072,0.0715,0.0796,0.0796,0.0797,0,0.0396,0.043,0.0439,0.0453,0.0505,0.0509,0.053,0.0565,0.0579,0.0605,0.0615,0.0641,0.0655,0.0675,0.0715,0.073,0.0727,0.0757,0.0745,0.0744,0.0742,0.0742,0.0681,0.0749,0.0749,0.0749,0.0749,0,0.0351,0.0353,0.0413,0.0418,0.0422,0.0468,0.0471,0.0497,0.0527,0.0539,0.0581,0.059,0.0642,0.0658,0.0689,0.0698,0.0704,0.0721,0.073,0.0718,0.0716,0.0727,0.073,0.0748,0.0748,0.0748,0.0748,0,0.0284,0.0324,0.0337,0.0385,0.0398,0.0399,0.044,0.0448,0.0478,0.0492,0.0498,0.0545,0.0566,0.0607,0.064,0.0661,0.0664,0.0678,0.0652,0.0658,0.0643,0.0644,0.0587,0.0583,0.0652,0.0651,0.0651,0,0.0253,0.0256,0.0305,0.0316,0.0336,0.0353,0.0368,0.0413,0.0427,0.0466,0.0468,0.0493,0.0515,0.0547,0.0584,0.0609,0.0625,0.0603,0.0629,0.0617,0.0625,0.0625,0.0626,0.0597,0.0596,0.0596,0.0595,0,0.0194,0.0214,0.0234,0.0262,0.0279,0.0302,0.0328,0.0334,0.0385,0.0399,0.0421,0.0438,0.0472,0.0496,0.0527,0.055,0.0581,0.0586,0.0585,0.0574,0.0559,0.0568,0.0637,0.0588,0.0588,0.0589,0.0589,0.059,0.0145,0.0151,0.0186,0.0207,0.0232,0.0255,0.0264,0.0296,0.0315,0.0346,0.0371,0.0392,0.0426,0.047,0.0491,0.0508,0.0523,0.0521,0.052,0.0519,0.0515,0.0556,0.0514,0.0514,0.0514,0.0515,0.0515,0,0.0089,0.0114,0.0134,0.0169,0.0186,0.0214,0.0244,0.0256,0.0273,0.0303,0.0324,0.035,0.0373,0.0412,0.0439,0.0445,0.046,0.0451,0.0451,0.0456,0.0499,0.0498,0.0438,0.0438,0.0438,0.0438,0.0438,0.0438,0.0062,0.0072,0.0097,0.012,0.0145,0.0166,0.0181,0.0203,0.0226,0.0253,0.0273,0.0299,0.0332,0.0362,0.0385,0.0396,0.0405,0.0391,0.0406,0.0446,0.0453,0.046,0.0459,0.0392,0.0392,0.0362,0.0361,0.0361]},{"header":{"parameterUnit":"m.s-1","parameterCategory":1,"la1":30.2991,"la2":30.254,"lo1":-89.0895,"lo2":-89.0444,"dy":0.0017,"dx":0.0017,"nx":28,"ny":28,"refTime":"2025-06-11T21:00:00:Z","depth":0,"parameterNumber":3,"parameterNumberName":"V-component_of_WINDS"},"data":[0,0,0,0,0,0,0,0,0,0,0,0,0,0,0,0,0,0,0,0,0,0,0,0,0,0,0,0,0,0,0,0,0,0,0,0,0,0,0,0,0,0,0,0,0,0,0,0,0,0,0,0,0,0,0,0,0,0,2.0769,2.077,0,2.0868,2.0869,2.087,2.0991,2.0993,2.0994,2.0996,2.1092,2.1093,2.1094,0,0,0,0,0,0,0,0,0,0,0,0,0,2.0678,2.0679,2.0769,2.077,2.0771,2.0868,2.0869,2.0871,2.099,2.0993,2.0995,2.0997,2.1092,2.1093,2.1094,0,0,0,0,0,0,0,0,0,0,0,0,0,2.0741,2.0679,2.0768,2.0843,2.085,2.0868,2.0869,2.0871,2.099,2.0993,2.0996,2.0998,2.1092,2.1093,2.1094,2.1045,0,0,2.1098,2.1098,0,0,0,0,0,0,0,0,2.0737,2.0744,2.0831,2.0838,2.0846,2.092,2.0873,2.0929,2.0989,2.0937,2.0996,2.1,2.1032,2.1039,2.1051,2.1049,2.1053,2.1098,2.1098,2.1099,2.1099,0,0,0,0,0,0,0,2.0733,2.074,2.0808,2.0832,2.0841,2.0869,2.0882,2.0884,2.0967,2.0942,2.0951,2.0961,2.1037,2.1049,2.1054,2.1055,2.1098,2.1099,2.11,2.11,2.1016,2.1013,0,0,0,0,0,0,2.0718,2.0736,2.0805,2.0811,2.0798,2.0869,2.0882,2.0893,2.0968,2.0982,2.0958,2.0966,2.1046,2.1052,2.1058,2.1003,2.1099,2.11,2.1101,2.1019,2.1015,2.1012,0,0,0,0,0,0,2.0715,2.0723,2.0801,2.0776,2.0788,2.0867,2.0879,2.0894,2.0906,2.098,2.0995,2.0956,2.1048,2.1056,2.1047,2.1008,2.1101,2.1102,2.1022,2.1018,2.1014,2.0894,0,0,0,0,0,0,2.0712,2.0721,2.0704,2.0775,2.0789,2.0789,2.0877,2.0894,2.0909,2.092,2.0982,2.0995,2.1051,2.1045,2.1048,2.1012,2.1103,2.1026,2.102,2.1015,2.0902,2.0887,2.0873,0,0,0,0,0,2.0709,2.0666,2.0703,2.071,2.077,2.0787,2.0795,2.0862,2.0905,2.0888,2.0935,2.0993,2.1013,2.1043,2.1048,2.1011,2.1029,2.1022,2.1015,2.0909,2.089,2.0874,0,0,0,0,0,0,2.0587,2.0676,2.0718,2.0698,2.0734,2.0807,2.0788,2.084,2.0864,2.0873,2.0954,2.0967,2.0947,2.0979,2.1011,2.0966,2.1029,2.1023,2.0946,2.0929,2.0914,2.0906,2.1104,0,0,0,0,0,2.0558,2.0566,2.0644,2.0617,2.0634,2.0707,2.0717,2.0766,2.0806,2.0822,2.0869,2.0904,2.0918,2.0926,2.0943,2.0908,2.0922,2.0885,2.0871,2.0859,2.0852,2.0834,2.0818,2.099,2.099,2.099,0,0,2.0497,2.0547,2.0547,2.0594,2.0628,2.0633,2.0719,2.0721,2.0725,2.0822,2.0816,2.0852,2.0896,2.0874,2.0866,2.0899,2.0808,2.085,2.084,2.084,2.0825,2.0809,2.0794,2.0986,2.0987,2.0987,0,0,2.0389,2.0429,2.0411,2.0444,2.0495,2.0544,2.0539,2.0605,2.0633,2.0629,2.0702,2.0707,2.073,2.0759,2.0776,2.0679,2.0732,2.0682,2.0605,2.0587,2.0574,2.0562,2.0525,2.0511,2.0676,2.0676,2.0675,0,2.0306,2.0318,2.0394,2.0392,2.0409,2.05,2.0481,2.0509,2.0561,2.0571,2.0608,2.0639,2.0675,2.066,2.0636,2.0648,2.0644,2.0674,2.057,2.0559,2.0549,2.0515,2.0501,2.0669,2.067,2.067,2.0671,0,2.0213,2.0221,2.02,2.025,2.0266,2.0255,2.0328,2.0334,2.0382,2.0427,2.0421,2.0468,2.0496,2.0497,2.0543,2.0487,2.0506,2.0555,2.0619,2.0525,2.0494,2.0481,2.066,2.0662,2.0664,2.0666,0,0,2.0029,2.0123,2.0114,2.0137,2.0201,2.0207,2.0199,2.0229,2.0231,2.0265,2.026,2.0278,2.0324,2.0343,2.0394,2.0378,2.0296,2.043,2.0432,2.0401,2.0235,2.0196,2.0179,2.0333,2.033,2.0329,2.0231,0,1.993,1.9924,1.9993,1.9967,1.9974,2.006,2.0054,2.009,2.0132,2.0142,2.0189,2.0199,2.0261,2.0273,2.0261,2.0308,2.0263,2.0317,2.0325,2.0325,2.0309,2.0164,2.0122,2.0027,2.0219,2.0217,2.0216,0,1.9814,1.9842,1.9818,1.9882,1.9888,1.988,1.9912,1.9922,1.9965,1.9997,2.0019,2.0077,2.0073,2.0135,2.0129,2.0164,2.0172,2.0195,2.0193,2.0194,2.0262,2.0158,1.9999,1.9983,2.0198,2.02,2.0201,0,1.9678,1.9711,1.9701,1.9719,1.9794,1.9787,1.9817,1.9864,1.9877,1.9904,1.9913,1.9939,1.9952,1.997,2.0033,2.0074,2.0019,2.0087,2.0042,2.004,2.0024,2.0024,1.9861,2.0034,2.0034,2.0034,2.0034,0,1.9559,1.954,1.9641,1.9634,1.9614,1.9693,1.9671,1.9711,1.9751,1.9752,1.9829,1.9827,1.9912,1.992,1.9969,1.9955,1.9961,1.9985,1.9997,1.9976,1.9973,1.998,1.9988,2.003,2.0031,2.0032,2.0033,0,1.9403,1.947,1.9464,1.9537,1.9555,1.9537,1.9598,1.9594,1.9641,1.9641,1.9646,1.9719,1.9732,1.9798,1.9826,1.9859,1.9826,1.9854,1.9812,1.982,1.977,1.9773,1.9604,1.9585,1.9772,1.977,1.9768,0,1.9321,1.9309,1.9381,1.9388,1.9415,1.9425,1.944,1.9517,1.9528,1.9577,1.9565,1.9585,1.9605,1.9621,1.9676,1.9697,1.9724,1.9664,1.9728,1.9707,1.972,1.9719,1.9717,1.9649,1.9647,1.9645,1.9643,0,1.9168,1.9202,1.922,1.925,1.9265,1.9292,1.9323,1.9323,1.9409,1.9417,1.9433,1.9448,1.9477,1.9495,1.9526,1.9556,1.9612,1.9623,1.9613,1.959,1.9565,1.9576,1.9772,1.9626,1.9627,1.9629,1.963,1.963,1.9045,1.9038,1.9087,1.9104,1.9137,1.9164,1.9163,1.9211,1.9226,1.9257,1.9302,1.931,1.9354,1.9401,1.9427,1.9434,1.9466,1.9452,1.9449,1.9443,1.9432,1.9567,1.944,1.944,1.9441,1.9441,1.9442,0,1.8894,1.893,1.8946,1.8987,1.9001,1.9056,1.9094,1.91,1.9107,1.9144,1.9163,1.9179,1.9197,1.9254,1.9277,1.9271,1.9298,1.9274,1.9274,1.928,1.9402,1.9407,1.9253,1.9253,1.9253,1.9253,1.9253,1.9253,1.8816,1.8806,1.8846,1.8852,1.8889,1.8899,1.8915,1.894,1.897,1.8986,1.9001,1.9039,1.9084,1.9111,1.9129,1.9145,1.9149,1.9116,1.914,1.9253,1.9271,1.9288,1.9293,1.9117,1.9117,1.9017,1.9016,1.9015]}]]